KUIPER-00134

导读

KUIPER-00134是美国2025年10月14日发射的卫星,隶属于亚马逊柯伊伯(Kuiper)项目。该项目旨在构建近地轨道卫星星座,为全球提供高速宽带互联网服务,填补偏远地区网络覆盖空白。KUIPER-00134作为星座组网的组成部分,将参与星座技术验证与服务部署,推动全球互联基础设施建设。

Basic Information
目录编号:
65960
目录名称:
KUIPER-00134
国际标识:
2025-228P
轨道中心:
EARTH
卫星名称:
KUIPER-00134
卫星全名:
KUIPER-00134
卫星状态:
在轨 (已飞行333 天)
发射日期:
2025-10-14 UTC
国别 :
美国 (US)
星等 :
--
This satellite is enrolled in the Space Conjunction Data Service (SCDS) and the current flight risk assessment level is: No High Risk
Orbit Information
数据来源 国际轨道数据 AOE轨道数据
星历时间 2026-09-12T05:18:20+0800
11小时前
查看轨道信息
2026-09-09T23:00:00+0800
2天前
查看轨道信息
半长轴 6830.724km 6830.816km
偏心率 0.0003775 0.0003998
轨道倾角 51.871° 51.871°
近地点辐角 237.242° 233.980°
升交点赤经 136.319° 147.269°
平近点角 122.820° 191.622°
近地点 450.008km 449.948km
远地点 455.166km 455.41km
周期 93.640分钟 93.642分钟
每日圈数 15.378102 15.377789
Detailed Information
使用方式:
暂无
2D Orbit Map
3D Orbit Map
Orbit Altitude Analysis Chart
Orbit Inclination Analysis Chart
Orbit Comprehensive Analysis Chart
View Comprehensive Chart
Conjunction Data List
Event ID Objects TCA Miss Dist (km) Collision Risk Probability Collision Risk Index (CRI) Action
CDM_260914-040605-598306-596021
GLOBAL-5 (55983)
2026-09-14T
04:06:43+0000
1.366 km
极远距离
5.732773E-6 低风险 0.5
CDM_260913-221006-154606-596022
2026-09-13T
22:10:19+0000
2.087 km
极远距离
1.825818E-6 低风险 0.4
CDM_260912-143804-873706-596021
2026-09-12T
14:38:50+0000
2.435 km
极远距离
1.820994E-6 低风险 0.4
CDM_260913-145204-387706-596021
2026-09-13T
14:52:03+0000
2.061 km
极远距离
1.804387E-6 低风险 0.4
Miss Distance Evolution Trend with All Objects
Collision Probability Evolution Trend with All Objects